Location: Congrier
(47.8099°N, 1.1170°W)
Time: 00:25:48
(UTC+00:00)

NOAA 6 - Pass Details

Date: 28 January 2023
Orbit: 771 x 786 km, 98.7° (Epoch: 21 March)

Event Time Altitude Azimuth Distance (km) Brightness Sun altitude
Rises 17:44:40 0° 162° (SSE) 3,244 7.3 -8.0°
Reaches altitude 10° 17:46:58 10° 162° (SSE) 2,323 6.5 -8.4°
Maximum altitude 17:52:06 86° 74° (ENE) 789 4.0 -9.2°
Drops below altitude 10° 17:57:18 10° 346° (NNW) 2,350 6.5 -10.1°
Sets 17:59:38 0° 346° (NNW) 3,285 7.3 -10.4°
